RH
74 94 92 82 74 84 84 68 78 66 65 74 78 77 65 51 60 61 68 63 66 77 99 83 99 93 91 82 85 82 73 65 84 89 82 83 91 85 87 80 84 78 70 62
77 93 70 60 67 76 56 63 85 81 63 68 69 69 58 56 61 58 54 56 66 90 82 83 96 93 97 95 88 86 80 74 88 93 81 78 74 78 83 85 83 74 60 54
73 58 44 51 60 61 57 68 74 66 49 63 71 70 69 55 54 52 50 55 64 77 74 86 81 90 99 88 86 87 91 96 83 98 91 83 79 75 75 77 76 63 51 51
63 54 58 64 66 63 77 57 57 62 69 79 63 84 64 71 60 52 58 65 71 65 68 64 83 87 93 99 99 96 87 87 84 96 99 90 85 87 88 79 78 74 77 80
65 57 61 66 66 58 72 58 60 65 71 64 58 83 94 75 76 71 73 83 79 69 68 82 83 83 82 87 94 91 100 98 83 66 90 88 77 74 84 74 89 98 98 95
57 41 49 57 54 60 57 64 65 64 69 87 64 74 70 55 74 80 69 71 80 67 84 75 74 74 75 94 79 100 94 100 96 81 74 86 73 67 68 98 99 99 99 93
62 48 41 44 62 58 59 80 94 91 94 89 58 66 62 46 72 82 78 73 78 98 94 84 82 80 73 73 78 87 92 95 97 86 73 78 58 61 65 67 76 76 78 82
82 74 50 45 52 68 74 80 98 96 91 93 69 68 64 44 45 87 82 76 62 79 92 98 85 72 73 70 80 79 87 93 90 98 89 80 80 74 71 71 68 67 67 65
82 66 45 43 45 62 73 90 67 97 93 90 77 67 51 46 45 53 81 78 72 59 66 77 82 78 83 74 87 83 80 78 82 77 98 95 89 88 86 81 77 80 77 76
60 77 53 48 48 52 67 66 79 90 94 95 88 97 82 66 60 55 58 66 63 65 59 61 70 68 72 78 79 87 84 82 82 80 82 75 71 69 78 78 73 79 76 77
59 66 66 58 69 76 74 83 84 87 96 97 96 98 59 64 62 62 58 52 58 64 65 59 54 54 58 58 58 66 82 78 82 88 84 86 91 85 83 79 68 81 78 77
61 72 89 74 57 50 58 67 84 93 91 97 98 99 70 77 58 53 55 49 48 59 67 69 65 55 51 56 64 63 72 78 79 79 86 90 91 96 91 95 89 85 73 79
64 87 89 74 60 54 64 58 66 89 92 90 96 98 68 69 59 54 56 54 51 48 56 64 71 70 58 50 58 66 66 70 73 79 86 95 90 86 81 72 72 72 73 76
62 90 78 89 77 65 74 62 58 79 95 91 81 70 77 71 68 66 63 60 57 52 52 59 66 74 77 73 66 59 65 70 72 67 63 72 66 69 68 69 66 61 64 63
66 84 80 62 57 53 64 57 55 75 71 88 73 89 85 76 71 68 62 62 61 62 62 59 57 62 69 71 75 75 71 73 77 86 64 62 60 61 64 67 61 61 66 68
70 95 92 94 63 74 57 48 48 47 55 63 66 84 81 71 64 79 76 71 70 69 69 67 62 56 56 62 60 65 76 75 72 71 74 71 65 59 62 57 67 73 70 64
77 92 95 83 66 84 76 58 57 63 56 67 82 85 83 69 76 90 84 80 80 76 73 70 68 64 57 51 52 53 57 62 69 76 78 75 66 57 60 68 69 62 58 56
70 91 92 98 85 66 54 57 61 64 65 70 77 82 72 74 83 81 88 85 83 84 79 75 69 67 62 59 52 48 46 49 52 52 56 60 62 64 62 58 59 61 60 60
70 84 90 87 92 56 64 64 72 74 67 77 84 84 76 76 82 88 84 87 88 83 84 84 81 76 69 60 55 52 49 47 46 45 46 49 48 50 54 56 62 65 63 66
71 68 90 91 83 65 50 65 59 60 76 87 81 86 83 80 98 86 76 83 86 88 81 83 83 79 72 66 63 57 53 51 51 50 50 49 50 51 55 59 60 63 70 74
92 93 86 93 86 62 56 65 61 64 43 83 82 81 81 85 77 81 75 73 77 91 89 81 77 76 75 69 65 62 60 58 58 56 52 50 50 51 55 59 60 63 68 74
68 86 87 79 80 59 60 70 65 57 69 67 73 74 73 75 78 70 68 66 65 86 90 84 79 76 74 72 70 69 68 66 64 61 58 56 56 58 58 64 70 73 77 80
58 56 62 62 58 40 56 53 55 59 59 67 73 74 74 74 65 62 64 67 68 67 82 88 80 80 79 76 72 70 73 75 75 76 68 63 63 64 68 70 72 77 83 85
53 49 57 51 37 52 43 55 58 60 59 65 68 67 66 65 67 68 66 65 66 68 68 84 79 77 78 81 81 82 75 75 76 79 80 83 88 91 94 98 92 96 100 96
50 54 59 68 56 47 46 47 58 61 64 65 65 66 66 69 70 72 75 71 67 70 68 82 77 74 74 77 78 82 84 82 84 86 87 94 100 99 96 97 99 100 100 100
51 62 60 52 42 40 42 41 50 59 63 63 62 67 67 70 74 74 75 79 76 72 80 82 88 77 72 74 72 76 83 86 86 93 93 99 98 99 99 99 98 99 99 99
Wind_Speed
6 2 6 7 9 15 14 12 15 16 9 5 17 19 19 15 12 5 17 19 15 19 16 14 25 18 12 21 25 38 26 29 44 41 43 43 40 37 38 40 39 36 34 32
3 7 10 10 8 10 8 11 12 7 6 5 9 16 16 7 5 10 13 16 11 22 18 13 20 16 12 18 21 20 35 27 38 46 45 43 41 39 39 38 38 35 31 31
3 6 5 6 7 9 6 5 7 14 10 9 6 8 8 1 4 9 16 11 21 28 26 21 22 15 15 19 15 13 28 34 51 48 43 42 39 35 34 32 36 33 31 30
5 4 7 7 8 9 5 3 12 14 10 4 4 4 8 15 4 6 10 9 22 24 23 23 21 17 17 17 20 11 25 25 40 36 40 38 40 38 38 34 32 32 28 26
7 4 3 4 5 7 7 7 11 8 9 4 4 3 9 7 12 13 5 4 22 28 24 25 19 15 12 11 11 17 19 43 44 42 33 30 35 37 36 36 34 33 30 27
7 5 3 2 8 8 12 9 10 3 1 2 4 3 9 14 9 13 12 13 7 27 31 28 23 20 18 16 10 15 13 37 44 43 38 35 35 32 31 35 36 35 33 30
6 3 3 4 6 6 14 5 3 3 3 4 4 10 8 17 9 9 13 23 2 5 31 21 21 23 19 11 13 16 17 30 23 33 36 34 33 32 32 33 33 32 31 30
4 7 6 6 3 4 5 3 3 4 1 3 8 5 6 13 14 11 19 28 16 3 7 21 23 17 17 10 14 16 17 22 20 18 38 34 31 31 31 29 25 24 23 21
5 4 5 5 2 3 7 3 1 3 1 3 4 8 6 18 17 16 18 22 21 26 3 4 7 14 14 13 21 23 15 16 30 33 24 31 31 23 25 24 23 22 20 23
4 2 5 4 9 9 4 4 4 4 4 4 3 4 7 13 11 12 13 16 18 15 18 12 2 1 7 14 19 21 20 21 32 34 32 20 19 35 30 25 25 23 19 21
5 3 6 6 5 5 6 5 4 4 3 4 1 4 12 11 9 8 9 18 19 22 17 11 5 2 1 7 7 11 19 18 19 37 33 28 31 26 26 28 35 32 29 25
3 3 2 1 4 4 4 5 3 3 4 3 2 3 8 13 8 13 19 24 24 19 19 18 13 1 5 3 4 4 9 18 20 27 31 34 32 30 31 33 33 37 29 32
4 3 3 7 7 7 5 6 4 2 2 2 1 1 7 11 14 20 19 26 27 26 22 24 23 17 7 2 5 7 7 10 11 14 22 21 13 14 16 20 19 21 27 31
3 3 5 5 6 3 4 6 6 4 4 2 2 3 7 9 10 16 26 26 25 25 25 24 23 22 17 9 5 3 5 9 12 11 10 11 11 16 17 16 15 17 17 22
4 3 3 2 3 2 4 3 4 3 4 4 3 1 5 7 6 11 20 22 25 25 24 22 21 20 20 17 11 6 1 6 7 6 11 7 10 6 4 9 14 17 17 16
4 0 2 4 2 4 2 5 4 3 3 2 2 3 4 10 13 18 19 18 20 20 19 18 17 17 17 16 16 13 9 3 4 10 10 8 11 16 13 9 13 13 13 13
3 3 3 3 2 4 5 4 3 1 2 4 2 3 3 3 7 11 13 15 16 15 14 16 16 14 14 14 13 12 11 9 6 2 4 9 9 11 16 19 15 14 13 13
3 2 2 3 4 4 5 2 2 3 3 4 3 3 4 5 3 8 8 9 10 11 12 13 12 10 10 9 7 8 9 7 6 4 1 2 5 8 11 11 12 12 12 13
3 2 2 3 2 4 1 4 4 4 4 7 6 5 3 3 4 2 7 10 10 9 10 10 10 9 9 9 8 6 4 3 3 3 4 4 4 6 8 10 12 14 14 14
2 3 3 1 2 4 4 4 6 4 3 8 9 7 4 3 3 2 7 8 9 10 10 10 10 10 10 11 11 8 5 4 4 5 7 8 8 9 11 12 12 14 15 15
2 2 3 2 2 6 4 8 7 2 5 12 13 9 6 2 2 7 8 9 10 10 12 11 10 11 9 9 10 11 10 9 8 8 10 12 15 14 15 16 17 17 17 18
5 4 3 1 1 6 13 7 6 5 8 13 13 12 7 5 6 4 4 7 10 10 11 10 9 9 10 10 10 10 10 11 12 13 13 13 15 18 18 18 19 20 20 20
2 6 3 8 5 5 22 5 10 12 11 10 13 11 9 7 7 5 5 6 8 9 11 11 7 6 8 10 12 13 13 14 14 13 13 13 14 15 17 19 20 21 21 22
3 6 3 2 3 8 18 12 12 11 10 12 13 10 9 9 9 10 11 12 8 10 10 11 9 9 9 9 12 14 14 15 15 15 12 11 11 11 13 16 18 20 22 23
6 7 5 6 9 7 14 24 19 15 11 11 9 8 8 9 10 10 10 12 12 10 11 12 9 12 11 13 15 18 17 15 14 12 11 10 9 11 11 14 15 17 20 21
10 7 5 7 13 8 5 19 22 20 15 11 9 7 7 7 7 6 10 9 9 9 11 12 11 11 11 14 17 18 18 16 12 9 11 10 9 10 12 14 14 14 16 21
Wind_Direction
198 182 241 244 236 249 268 315 314 314 323 160 238 262 269 273 254 240 245 238 220 164 166 131 181 192 210 221 208 205 201 202 187 186 187 188 185 183 189 193 195 193 191 188
226 251 248 238 248 247 277 303 312 309 242 228 273 272 269 253 222 228 277 258 189 154 136 154 185 185 180 198 185 193 198 193 175 189 193 192 192 193 199 198 199 196 189 184
238 265 337 344 322 310 315 305 302 317 318 212 305 298 336 1 258 297 300 271 175 175 151 165 181 191 188 192 201 197 189 195 197 193 185 187 187 191 188 187 189 189 186 181
274 360 27 356 327 3 313 342 343 326 344 312 127 297 350 327 350 329 301 144 161 169 168 174 186 181 183 180 187 178 200 191 186 187 192 185 180 180 183 182 182 182 180 180
265 321 7 333 325 328 256 311 305 289 299 328 341 70 320 14 354 14 284 153 180 176 172 189 182 165 145 186 210 202 187 179 183 185 200 193 194 189 180 181 184 181 184 190
251 289 104 263 289 280 276 301 301 252 252 25 290 117 359 2 57 353 11 7 192 184 174 162 152 167 149 153 145 207 174 167 189 184 185 201 202 197 188 184 185 184 187 190
333 20 324 338 333 333 358 10 347 14 16 216 358 74 53 3 27 81 8 2 80 85 154 162 177 180 154 159 176 171 173 183 159 191 181 192 192 189 193 191 188 185 186 186
59 350 358 338 9 298 309 54 345 20 56 323 22 46 20 5 39 39 42 5 30 52 171 181 193 182 178 180 196 183 179 184 197 168 180 190 187 183 185 189 187 196 196 201
31 323 337 354 12 30 313 22 165 303 182 47 5 355 343 5 17 49 65 23 19 39 54 184 214 217 201 208 220 213 200 188 194 199 173 184 189 193 204 207 209 213 219 223
319 346 332 332 26 344 54 295 35 345 36 77 342 65 6 7 8 17 32 47 23 16 42 50 56 234 221 227 238 228 221 215 200 196 205 210 220 214 224 221 223 219 225 222
28 68 314 32 9 29 1 20 26 119 31 20 50 69 8 354 358 23 15 39 36 38 30 28 53 123 230 241 229 250 228 221 210 207 204 211 214 215 219 230 232 232 225 235
331 97 70 5 4 24 67 36 47 85 335 35 81 59 324 340 0 39 37 43 50 52 44 41 43 94 186 131 183 147 205 221 218 208 207 218 235 242 245 240 222 230 232 226
334 25 37 342 348 357 25 1 41 75 28 21 63 42 323 339 13 24 32 45 48 49 46 45 48 46 52 158 170 160 168 185 201 225 228 228 240 243 248 245 236 236 238 228
89 67 138 163 211 235 335 350 358 78 67 340 96 312 357 1 16 15 17 29 48 52 57 54 47 49 52 54 56 205 210 199 209 205 212 215 224 221 226 232 229 237 229 230
77 101 32 331 329 332 246 285 335 88 197 119 269 38 340 342 9 17 22 39 44 46 49 51 48 48 51 53 49 30 272 220 217 195 176 222 278 313 305 248 240 248 243 239
9 114 87 342 66 40 310 280 245 223 205 169 287 194 327 342 22 39 36 33 35 38 37 40 49 50 50 50 47 49 51 53 217 225 235 234 243 247 279 270 284 255 242 238
68 103 48 316 14 40 4 217 209 285 158 158 208 189 290 349 59 36 29 38 35 30 23 22 30 38 44 40 43 56 54 49 49 62 193 198 213 217 217 250 250 241 238 235
113 89 110 237 22 27 241 154 214 206 223 205 145 136 270 45 112 53 39 19 17 13 14 19 21 20 28 33 38 42 48 46 41 39 20 221 227 237 239 246 245 243 243 242
73 106 62 106 185 280 265 213 185 178 271 196 178 208 259 315 212 84 26 16 7 354 348 358 9 10 4 4 11 16 23 11 354 334 316 299 266 250 248 245 247 248 245 243
355 94 112 32 124 202 223 172 136 102 287 186 170 198 218 331 188 249 343 340 353 2 353 351 337 338 349 5 8 2 345 314 288 279 278 273 274 269 263 257 254 254 250 245
32 359 154 225 233 283 199 156 131 148 232 177 185 194 181 160 227 297 323 312 316 339 348 340 344 346 341 337 343 348 343 328 312 290 278 276 270 267 263 258 252 251 249 244
181 153 216 135 53 291 155 128 173 182 153 178 190 206 212 213 245 272 298 318 332 324 334 341 342 341 342 339 338 335 334 330 318 308 299 285 270 261 261 259 253 249 245 241
238 192 198 185 218 236 187 232 192 173 177 189 197 215 209 219 243 259 284 292 311 315 312 325 328 344 347 343 340 339 339 334 329 321 306 291 277 269 262 258 256 253 249 245
257 192 221 3 268 213 208 202 202 204 202 194 207 202 221 249 262 266 267 270 287 304 300 295 305 318 330 343 347 341 334 328 328 327 319 309 294 278 266 257 253 248 247 244
207 151 205 260 273 285 242 218 214 221 224 207 212 221 237 255 272 280 284 283 259 276 290 293 278 289 314 332 336 329 329 329 326 326 323 317 303 287 280 275 268 258 253 250
190 195 176 225 226 210 233 225 216 219 216 217 215 226 224 228 255 278 285 289 263 268 285 286 268 272 288 305 317 316 317 317 320 330 330 320 313 303 297 298 291 278 260 247